• In India
  • List of Countries
  • For 7 days
  • Water Temperature
  • Satellite Maps
  • Weather Map
  • Weather Widgets
  • user-avatar
    Login

    Hourly Weather Popruzhna

    Today, 18 June, Monday

    Time Temperature Precipitation Wind Pressure Humidity
    00:00 +20°C° 0.2 mm 2 mps 743 mmHg 90%
    01:00 +19°C° 0.2 mm 2 mps 743 mmHg 91%
    02:00 +20°C° 0 mm 1 mps 742 mmHg 90%
    03:00 +20°C° 0.5 mm 1 mps 742 mmHg 91%
    04:00 +20°C° 0.5 mm 1 mps 742 mmHg 92%
    05:00 +20°C° 0.5 mm 1 mps 742 mmHg 93%
    06:00 +21°C° 0 mm 2 mps 743 mmHg 88%
    07:00 +23°C° 0 mm 2 mps 743 mmHg 83%
    08:00 +25°C° 0 mm 2 mps 743 mmHg 79%
    09:00 +25°C° 1 mm 2 mps 743 mmHg 75%
    10:00 +26°C° 1 mm 3 mps 743 mmHg 71%
    11:00 +27°C° 1 mm 3 mps 743 mmHg 67%
    12:00 +27°C° 0.3 mm 3 mps 743 mmHg 65%
    13:00 +28°C° 0.3 mm 3 mps 743 mmHg 62%
    14:00 +28°C° 0.3 mm 3 mps 743 mmHg 60%
    15:00 +28°C° 0 mm 3 mps 743 mmHg 62%
    16:00 +27°C° 0 mm 3 mps 743 mmHg 65%
    17:00 +27°C° 0 mm 3 mps 743 mmHg 67%
    18:00 +25°C° 0 mm 3 mps 743 mmHg 70%
    19:00 +24°C° 0 mm 2 mps 743 mmHg 74%
    20:00 +21°C° 0 mm 2 mps 743 mmHg 77%
    21:00 +20°C° 0 mm 2 mps 744 mmHg 77%
    22:00 +21°C° 0 mm 1 mps 744 mmHg 77%
    23:00 +20°C° 0 mm 1 mps 744 mmHg 77%

    Tomorrow, 19 June, Tuesday

    Time Temperature Precipitation Wind Pressure Humidity
    00:00 +19°C° 0 mm 1 mps 744 mmHg 78%
    01:00 +19°C° 0 mm 1 mps 745 mmHg 79%
    02:00 +19°C° 0 mm 1 mps 745 mmHg 79%
    03:00 +19°C° 0 mm 1 mps 745 mmHg 80%
    04:00 +19°C° 0 mm 1 mps 745 mmHg 81%
    05:00 +19°C° 0 mm 1 mps 745 mmHg 82%
    06:00 +21°C° 0 mm 1 mps 745 mmHg 77%
    07:00 +23°C° 0 mm 1 mps 746 mmHg 73%
    08:00 +24°C° 0 mm 1 mps 746 mmHg 68%
    09:00 +25°C° 0 mm 1 mps 746 mmHg 65%
    10:00 +26°C° 0 mm 1 mps 746 mmHg 61%
    11:00 +27°C° 0 mm 1 mps 746 mmHg 58%
    12:00 +28°C° 0 mm 1 mps 746 mmHg 57%
    13:00 +28°C° 0 mm 1 mps 746 mmHg 57%
    14:00 +29°C° 0 mm 1 mps 746 mmHg 56%
    15:00 +29°C° 0 mm 1 mps 746 mmHg 58%
    16:00 +29°C° 0 mm 1 mps 746 mmHg 59%
    17:00 +28°C° 0 mm 1 mps 746 mmHg 61%
    18:00 +27°C° 0 mm 1 mps 746 mmHg 66%
    19:00 +25°C° 0 mm 1 mps 746 mmHg 71%
    20:00 +24°C° 0 mm 1 mps 745 mmHg 76%
    21:00 +23°C° 0 mm 1 mps 746 mmHg 78%
    22:00 +23°C° 0 mm 1 mps 746 mmHg 81%
    23:00 +22°C° 0 mm 1 mps 746 mmHg 83%

    Day after tomorrow, 20 June, Wednesday

    Time Temperature Precipitation Wind Pressure Humidity
    00:00 +22°C° 0 mm 1 mps 746 mmHg 85%
    01:00 +21°C° 0 mm 1 mps 746 mmHg 86%
    02:00 +21°C° 0 mm 1 mps 746 mmHg 88%
    03:00 +21°C° 0 mm 1 mps 747 mmHg 89%
    04:00 +21°C° 0 mm 1 mps 747 mmHg 90%
    05:00 +20°C° 0 mm 2 mps 747 mmHg 91%
    06:00 +21°C° 0 mm 2 mps 747 mmHg 86%
    07:00 +24°C° 0 mm 2 mps 747 mmHg 82%
    08:00 +26°C° 0 mm 2 mps 747 mmHg 78%
    09:00 +26°C° 0.6 mm 2 mps 747 mmHg 75%
    10:00 +27°C° 0.6 mm 3 mps 747 mmHg 72%
    11:00 +28°C° 0.6 mm 3 mps 747 mmHg 69%
    12:00 +28°C° 0.5 mm 3 mps 747 mmHg 68%
    13:00 +29°C° 0.5 mm 3 mps 747 mmHg 66%
    14:00 +29°C° 0.5 mm 3 mps 747 mmHg 65%
    15:00 +29°C° 0.1 mm 3 mps 747 mmHg 66%
    16:00 +28°C° 0.1 mm 3 mps 747 mmHg 67%
    17:00 +28°C° 0.1 mm 3 mps 747 mmHg 69%
    18:00 +27°C° 0 mm 3 mps 747 mmHg 72%
    19:00 +25°C° 0 mm 2 mps 747 mmHg 76%
    20:00 +24°C° 0 mm 2 mps 747 mmHg 80%
    21:00 +23°C° 0 mm 2 mps 747 mmHg 81%
    22:00 +21°C° 0 mm 2 mps 747 mmHg 82%
    23:00 +20°C° 0 mm 2 mps 747 mmHg 83%

    21 June, Thursday

    Time Temperature Precipitation Wind Pressure Humidity
    00:00 +20°C° 0 mm 2 mps 747 mmHg 83%
    01:00 +19°C° 0 mm 2 mps 747 mmHg 84%
    02:00 +19°C° 0 mm 2 mps 747 mmHg 85%
    03:00 +19°C° 0 mm 2 mps 747 mmHg 86%
    04:00 +19°C° 0 mm 2 mps 747 mmHg 86%
    05:00 +19°C° 0 mm 2 mps 747 mmHg 87%
    06:00 +20°C° 0 mm 2 mps 747 mmHg 83%
    07:00 +23°C° 0 mm 2 mps 747 mmHg 78%
    08:00 +24°C° 0 mm 2 mps 747 mmHg 73%
    09:00 +25°C° 0 mm 2 mps 746 mmHg 69%
    10:00 +26°C° 0 mm 2 mps 746 mmHg 64%
    11:00 +27°C° 0 mm 2 mps 746 mmHg 60%
    12:00 +27°C° 0.1 mm 2 mps 745 mmHg 60%
    13:00 +28°C° 0.1 mm 2 mps 745 mmHg 60%
    14:00 +28°C° 0.1 mm 2 mps 745 mmHg 60%
    15:00 +28°C° 0 mm 2 mps 744 mmHg 61%
    16:00 +28°C° 0 mm 2 mps 744 mmHg 63%
    17:00 +28°C° 0 mm 2 mps 743 mmHg 64%
    18:00 +26°C° 0 mm 2 mps 743 mmHg 69%
    19:00 +25°C° 0 mm 2 mps 743 mmHg 74%
    20:00 +23°C° 0 mm 2 mps 743 mmHg 79%
    21:00 +23°C° 0 mm 2 mps 743 mmHg 81%
    22:00 +21°C° 0 mm 2 mps 742 mmHg 83%
    23:00 +20°C° 0 mm 2 mps 742 mmHg 85%

    22 June, Friday

    Time Temperature Precipitation Wind Pressure Humidity
    00:00 +20°C° 0 mm 2 mps 742 mmHg 86%
    01:00 +19°C° 0 mm 2 mps 742 mmHg 87%
    02:00 +19°C° 0 mm 2 mps 741 mmHg 88%
    03:00 +19°C° 0 mm 2 mps 741 mmHg 88%
    04:00 +19°C° 0 mm 2 mps 741 mmHg 89%
    05:00 +19°C° 0 mm 2 mps 740 mmHg 89%
    06:00 +21°C° 0 mm 2 mps 740 mmHg 84%
    07:00 +24°C° 0 mm 2 mps 740 mmHg 80%
    08:00 +26°C° 0 mm 3 mps 740 mmHg 75%
    09:00 +27°C° 0.2 mm 3 mps 740 mmHg 71%
    10:00 +28°C° 0.2 mm 3 mps 739 mmHg 67%
    11:00 +29°C° 0.2 mm 3 mps 739 mmHg 64%
    12:00 +29°C° 0.5 mm 3 mps 739 mmHg 63%
    13:00 +29°C° 0.5 mm 3 mps 738 mmHg 62%
    14:00 +30°C° 0.5 mm 3 mps 738 mmHg 61%
    15:00 +29°C° 2.1 mm 3 mps 738 mmHg 67%
    16:00 +28°C° 2.1 mm 3 mps 738 mmHg 72%
    17:00 +27°C° 2.1 mm 3 mps 738 mmHg 78%
    18:00 +25°C° 0.6 mm 3 mps 738 mmHg 82%
    19:00 +24°C° 0.6 mm 3 mps 738 mmHg 85%
    20:00 +21°C° 0.6 mm 3 mps 738 mmHg 89%
    21:00 +20°C° 0.1 mm 4 mps 738 mmHg 89%
    22:00 +19°C° 0.1 mm 5 mps 738 mmHg 89%
    23:00 +17°C° 0.1 mm 5 mps 738 mmHg 89%

    23 June, Saturday

    Time Temperature Precipitation Wind Pressure Humidity
    00:00 +16°C° 0.5 mm 5 mps 739 mmHg 89%
    01:00 +15°C° 0.5 mm 5 mps 739 mmHg 89%
    02:00 +14°C° 0.5 mm 5 mps 739 mmHg 89%
    03:00 +14°C° 0.3 mm 5 mps 739 mmHg 90%
    04:00 +14°C° 0.3 mm 6 mps 739 mmHg 91%
    05:00 +13°C° 0.3 mm 6 mps 739 mmHg 92%
    06:00 +13°C° 1 mm 6 mps 740 mmHg 92%
    07:00 +13°C° 1 mm 6 mps 740 mmHg 92%
    08:00 +13°C° 1 mm 6 mps 740 mmHg 92%
    09:00 +13°C° 0.8 mm 6 mps 741 mmHg 92%
    10:00 +11°C° 0.8 mm 6 mps 741 mmHg 92%
    11:00 +11°C° 0.8 mm 6 mps 742 mmHg 91%
    12:00 +14°C° 0.1 mm 6 mps 742 mmHg 85%
    13:00 +15°C° 0.1 mm 6 mps 742 mmHg 79%
    14:00 +16°C° 0.1 mm 6 mps 742 mmHg 73%
    15:00 +16°C° 0 mm 5 mps 742 mmHg 71%
    16:00 +16°C° 0 mm 5 mps 742 mmHg 70%
    17:00 +18°C° 0 mm 4 mps 742 mmHg 69%
    18:00 +17°C° 0 mm 3 mps 743 mmHg 72%
    19:00 +16°C° 0 mm 2 mps 743 mmHg 76%
    20:00 +15°C° 0 mm 2 mps 743 mmHg 79%
    21:00 +15°C° 0 mm 2 mps 743 mmHg 80%
    22:00 +14°C° 0 mm 2 mps 743 mmHg 81%
    23:00 +13°C° 0 mm 2 mps 744 mmHg 83%
    Show more